Zurück zum Katalog

CZ-3A DEB

AktivGTO
NORAD 35558·DEBRIS·🇨🇳 China

Gestartet Feb 2, 2007 von Xichang Satellite Launch Center

Loading…

TLE

VeraltetSource: Space-Track

Epoche: Sep 13, 2026, 17:24 UTC

1 35558U 07003S   26256.72514931  .00000268  00000-0  36879-2 0  9990
2 35558  22.6932 113.9166 7463222 158.5019 267.0843  1.91861559 92639

Verfolge CZ-3A DEB in Echtzeit mit AllMySat

Download on the App Store